sat.trackr.live / text

‹ back to catalog

STARLINK-34884

NORAD 66287 · 2025-247Y

PAYLOAD ACTIVE UNKNOWN

§ Identity

Operator
Country
US
Launch date
2025-10-31
Launch site
AFWTR
Launch vehicle
Mass (kg)
RCS (m²)

Purposes: comms

External: N2YO · Heavens-Above · Gunter

§ Orbital elements

Epoch: 2026-05-25T03:35:45.204000Z

Period
93.85 min
Inclination
53.1593°
Eccentricity
0.0001003
Mean motion
15.34421301 rev/d
Perigee alt
462.0 km
Apogee alt
463.3 km
Semi-major
6,840.8 km
B*
7.1593e-4
RAAN
195.3273°
Arg perigee
78.6433°
Mean anomaly
281.4682°
Rev number
3,275

§ Raw data

STARLINK-348841 66287U 25247Y   26145.14982875  .00023906  00000+0  71593-3 0  99982 66287  53.1593 195.3273 0001003  78.6433 281.4682 15.34421301 32754

JSON: /api/v1/satellites/66287 · /tle

For live sub-satellite position, see the globe view (requires WebGL).

§ Visibility from observer

Set your observer location to see the next 7 days of passes ≥ 10°. The values pass through the URL so the page stays shareable.

No JS? Fill the form by hand. The geolocation button needs JavaScript.